BREEZE-M R/B, 42909

Orbit data source: Space-Track

BREEZE-M R/B, 42909 is space debris in GEO originally from a launch on Wed, 16 Aug 2017 UTC launched from the Tyuratam Missile And Space Complex (TTMTR). Debris objects in space refer to the collection of defunct objects orbiting the Earth. Examples of debris include non-operational satellites, rocket bodies, and fragments generated from explosions, collisions, or faulty payload assembly.

Not visible in the next 10 days
Identifier
42909, 2017-046C
Orbit
GEO
Country
Flag of CISCIS
Related business
Manufacturer
Khrunichev
Mission
Spacecraft
Bus & Motor
BRIZ, Unknown motor
Mass
~1,600 kg wet, 1,600 kg dry
Launch date (UTC)
2017-08-16 (8 years ago)
Launch vehicle
Unknown
Launch site
Tyuratam Missile And Space Complex (TTMTR)
Object type
Payload
Rocket body
Debris
Shape & HBR
Cyl, 2.0 m
Radar Cross Section
15.135 m²

Expand to show TLE details & history
Last TLE update: 23 hours ago

TLE from 23 hours ago
0 BREEZE-M R/B
1 42909U 17046C   25351.39855822 -.00000144  00000-0  00000-0 0  9990
2 42909   8.1825  70.0955 0753929 157.3196 205.9585  0.90332607 27512
Epoch: 2025-12-17T09:33Z
TLE epoch observation values (Epoch: 2025-12-17T09:33:55.430Z)
Latitude
-0°
Longitude
-159.83387°
Altitude
41,947.19 km
Speed
2.771 km/s
True Right ascension
04h 39m 39s
True Declination
0° 00' 00"
Sunlit
Object was in daylight at epoch
Visualization orbit readout
Latitude
Unknown
Longitude
Unknown
Altitude
Unknown
Speed
Unknown
Apparent Right ascension
Unknown
Apparent Declination
Unknown
Sunlit
N/A
Visualization observer readout
Local Sidereal Time
07:38:50
Azimuth
Unknown
Elevation
Unknown
Doppler factor
Unknown
Orbital elements
Apogee altitude
42,234.45 km
Perigee altitude
35,418.255 km
Semi-major axis
45,204.489 km
Eccentricity
0.07539
Inclination
8.1825°
RAAN
70.0955°
Arg. of periapsis
157.3196°
True anomaly
202.4752°
Mean anomaly
205.9585°
Eccentric anomaly
204.18855°
Mean motion
0.22582 °/min
Orbital period
1,594.16 mins
BSTAR
0
Loading maneuver chart data...
Computing Atmospheric mass density...
Loading historical data...
Loading historical data...
Loading historical data...
Loading historical data...
Loading historical data...
Loading historical data...
Loading historical data...
Other satellites on launch #46 in the year 2017 (2017-08-16 UTC)

Documentation

Showing up to 5 results
|